Address 0x281777D3bdD096d302791F94A2E429bb98474227 1

 
 
Txn Hash Method
Block
From
To
Value [Txn Fee]
0x76b867463d42e108a9f0551dccb36b5cad7f137d9467fcea9f57e4acba7eb97aTransfer*301845302022-06-30 18:10:4657 mins ago0x281777d3bdd096d302791f94a2e429bb98474227OUT0x8b9805a2f595b6705e74f7310829f2d299d215220 MATIC0.05202792 111
0xa48548619a4d5d850e088c020428aa2e048a242a3cb9d151735e2f3925b566b8Prepare And Init...301845232022-06-30 18:10:3257 mins ago0x281777d3bdd096d302791f94a2e429bb98474227OUT 0xcb1822859cef82cd2eb4e6276c7916e6929951300 MATIC0.090644376 111
0x2fff2955db0575b29d3d6ffeca52cac807eb7b531cf825457111cb19f10d327cTransfer*301833262022-06-30 17:25:061 hr 43 mins ago0x281777d3bdd096d302791f94a2e429bb98474227OUT0x8b9805a2f595b6705e74f7310829f2d299d215220 MATIC0.023987496 52
0xaa309c01fb0bea21694522cae0dd3fa7312da9a01e63b339fb66bdeddd3a3f4cPrepare And Init...301833122022-06-30 17:24:381 hr 43 mins ago0x281777d3bdd096d302791f94a2e429bb98474227OUT 0xcb1822859cef82cd2eb4e6276c7916e6929951300 MATIC0.04247152 52
0x51cc18ffab81fa4abe2008d7da5a14b6cae071fdda302cedf80d9d1ffc269f93Transfer*301822662022-06-30 16:46:282 hrs 21 mins ago0x281777d3bdd096d302791f94a2e429bb98474227OUT0x8b9805a2f595b6705e74f7310829f2d299d215220 MATIC0.03690624 80
0xc066d92d633c162d81f46152f1d7190f7e98e258f4c068edf9415f5e20b90582Prepare And Init...301822332022-06-30 16:45:222 hrs 23 mins ago0x281777d3bdd096d302791f94a2e429bb98474227OUT 0xcb1822859cef82cd2eb4e6276c7916e6929951300 MATIC0.07084896 80
0x064fef3d8e6024051cf6a1e45f70b2b3fbcb01abf0c02f49961b3f59c6fc4f36Transfer*301819552022-06-30 16:33:422 hrs 34 mins ago0x281777d3bdd096d302791f94a2e429bb98474227OUT0x8b9805a2f595b6705e74f7310829f2d299d215220 MATIC0.065967473 143
0x34ac154ceb7bacaafd730c0564c51d4ad63c44d95031159d46ea22043975fbe7Prepare And Init...301819342022-06-30 16:32:562 hrs 35 mins ago0x281777d3bdd096d302791f94a2e429bb98474227OUT 0xcb1822859cef82cd2eb4e6276c7916e6929951300 MATIC0.126664824 143
0x80dd5e49ae2b57f19abf4f69c357dc6186905733b6f167054c5a6c1aedc5c996Transfer*301816762022-06-30 16:24:042 hrs 44 mins ago0x281777d3bdd096d302791f94a2e429bb98474227OUT0x8b9805a2f595b6705e74f7310829f2d299d215220 MATIC0.034688758 74
0x57da9e4c3286366be8481187c0f863db9594f809644d01b3b90e253261999cfaPrepare And Init...301816612022-06-30 16:23:342 hrs 44 mins ago0x281777d3bdd096d302791f94a2e429bb98474227OUT 0xcb1822859cef82cd2eb4e6276c7916e6929951300 MATIC0.065535288 74
0x8854a77f52a46b9bc3a753a6a0fa84bd364bdad1921b63fca6e55d7e83ba7fe8Transfer*301539332022-06-29 23:28:0619 hrs 40 mins ago0x281777d3bdd096d302791f94a2e429bb98474227OUT0x8b9805a2f595b6705e74f7310829f2d299d215220 MATIC0.02514694 52
0x21d2c4ef85e83bb78c955a85979015cd7b6c4de9257cbcf121338991cf97eb9dPrepare And Init...301539222022-06-29 23:27:4419 hrs 40 mins ago0x281777d3bdd096d302791f94a2e429bb98474227OUT 0xcb1822859cef82cd2eb4e6276c7916e6929951300 MATIC0.113068696 52
0xac0270d984e8b2653a49327729cbd12814d96fbf1110ec7bc9885899c3112bf9Transfer*301536632022-06-29 23:18:4619 hrs 49 mins ago0x281777d3bdd096d302791f94a2e429bb98474227OUT0x8b9805a2f595b6705e74f7310829f2d299d215220 MATIC0.015236448 32
0xe732ca92ca9dabf34f6c768c567bdd43ffb98b37802640adf343fab69dd07ce9Prepare And Init...301536572022-06-29 23:18:3419 hrs 49 mins ago0x281777d3bdd096d302791f94a2e429bb98474227OUT 0xcb1822859cef82cd2eb4e6276c7916e6929951300 MATIC0.068841952 32
0x3b522bdc20ffd41267a610ab1118aa4dd04ea4a2963ecd9b35e1164d94a82fa9Transfer*301534242022-06-29 23:08:2819 hrs 59 mins ago0x281777d3bdd096d302791f94a2e429bb98474227OUT0x8b9805a2f595b6705e74f7310829f2d299d215220 MATIC0.054896009 119
0xd9f4aa41225caa2b966e3be57a870fcb6f45ef497a546074c19ee7cf7794925bPrepare And Init...301534132022-06-29 23:08:0620 hrs ago0x281777d3bdd096d302791f94a2e429bb98474227OUT 0xcb1822859cef82cd2eb4e6276c7916e6929951300 MATIC0.250529748 119
0xedbba53950e05faa6dca962bddf9bbb2feacd9f2024bd0e5e2453ee366cd05d1Transfer*301532922022-06-29 23:03:5620 hrs 4 mins ago0x281777d3bdd096d302791f94a2e429bb98474227OUT0x8b9805a2f595b6705e74f7310829f2d299d215220 MATIC0.026663616 56
0xbe74f73689d5ebbcf15251af587b3dbdb44f24198679ff5381067ef1d0abfebdPrepare And Init...301532822022-06-29 23:03:3620 hrs 4 mins ago0x281777d3bdd096d302791f94a2e429bb98474227OUT 0xcb1822859cef82cd2eb4e6276c7916e6929951300 MATIC0.120473416 56
0xb37bbdaa72015157732d7ae68978aa2e8277dd20dc8d5430882aa993b1527e96Transfer*301511662022-06-29 21:46:3121 hrs 21 mins ago0x281777d3bdd096d302791f94a2e429bb98474227OUT0x8b9805a2f595b6705e74f7310829f2d299d215220 MATIC0.021426255 45
0x66b4a6eeafa78664382b16cfd066d15309bac9e22e5b7aac0707ca90f399a2eaPrepare And Init...301511562022-06-29 21:46:1121 hrs 22 mins ago0x281777d3bdd096d302791f94a2e429bb98474227OUT 0xcb1822859cef82cd2eb4e6276c7916e6929951300 MATIC0.049168125 45
0xecdf8a47de14074f49ffd340986aa827061c6f379849a70f597382aa332d6fd6Transfer*301438692022-06-29 17:07:541 day 2 hrs ago0x281777d3bdd096d302791f94a2e429bb98474227OUT0x8b9805a2f595b6705e74f7310829f2d299d215220 MATIC0.045205538 98
0x5f8b646e7bd803824d764ebadc044189a96572ce3d70ab6b7d3dab71bd930584Prepare And Init...301438582022-06-29 17:07:321 day 2 hrs ago0x281777d3bdd096d302791f94a2e429bb98474227OUT 0xcb1822859cef82cd2eb4e6276c7916e6929951300 MATIC0.122867794 98
0x4f6aeb63165687a722e13c9f2d79ca1d6bcd0cfb459c7a65745187f9f7915132Transfer*301433992022-06-29 16:49:261 day 2 hrs ago0x281777d3bdd096d302791f94a2e429bb98474227OUT0x8b9805a2f595b6705e74f7310829f2d299d215220 MATIC0.037718304 78
0x1852755cf1d9e7f2a70b0d16e933c4c4fa1c01d647e3d773ff8b45367a8eb8a8Prepare And Init...301433882022-06-29 16:49:041 day 2 hrs ago0x281777d3bdd096d302791f94a2e429bb98474227OUT 0xcb1822859cef82cd2eb4e6276c7916e6929951300 MATIC0.09420333 78
0x62d39f12a66b60038b1689d841098bbc113b05cf71552d4808c2b402ba2f6266Transfer*301433172022-06-29 16:45:141 day 2 hrs ago0x281777d3bdd096d302791f94a2e429bb98474227OUT0x8b9805a2f595b6705e74f7310829f2d299d215220 MATIC0.0328104 70
[ Download CSV Export 
Parent Txn Hash Block From To Value
Loading

Contract Name:
0 MATIC

Compiler Version
0

Optimization Enabled:
0 MATIC

Other Settings:
-NA-
Block Transaction Gas Used Reward
Age Block Fee Address BC Fee Address Voting Power Jailed Incoming
Block Uncle Number Difficulty Gas Used Reward
Loading
Loading
Make sure to use the "Vote Down" button for any spammy posts, and the "Vote Up" for interesting conversations.